Regional Weather Roundup
Issued by NWS

Home | Current Version | Previous Version | Graphics & Text | Print | Product List | Glossary On
Versions: 1 2 3 4 5 6 7 8 9 10 11 12 13 14 15 16 17 18 19 20 21 22 23 24 25 26 27 28 29 30 31 32 33 34 35 36 37 38 39 40 41 42 43 44 45 46 47 48 49 50
000
ASUS43 KFSD 300302
RWRSD

WEATHER ROUNDUP FOR SOUTH DAKOTA
NATIONAL WEATHER SERVICE SIOUX FALLS SD
1000 PM CDT FRI MAY 29 2015

NOTE: "FAIR" INDICATES FEW OR NO CLOUDS BELOW 12,000 FEET WITH NO
SIGNIFICANT WEATHER AND/OR OBSTRUCTIONS TO VISIBILITY.


SDZ001>005-009-010-012>017-300400-
NORTHWEST AND NORTH CENTRAL SOUTH DAKOTA

CITY           SKY/WX    TMP DP  RH WIND       PRES   REMARKS
BUFFALO          N/A     48  38  68 E8        30.21S
FAITH            N/A     44  37  76 NE8       30.27S
MOBRIDGE       MOCLDY    45  39  79 N6        30.24R
$$

SDZ012>016-024>037-041>051-057-063-072>074-300400-
SOUTHWEST AND SOUTH CENTRAL SOUTH DAKOTA

CITY           SKY/WX    TMP DP  RH WIND       PRES   REMARKS
RAPID CTY ARPT PTCLDY    46  40  79 NE8       30.27S
PIERRE         MOCLDY    47  41  80 NW10      30.24R
CUSTER         CLOUDY    44  40  85 CALM      30.29S
ELLSWORTH AFB  PTCLDY    49  41  73 NE7       30.27S
PHILIP         MOCLDY    47  40  76 N8        30.27R
PINE RIDGE     CLOUDY    48  40  73 CALM      30.28S
WINNER         FAIR      47  38  71 N9        30.23S
$$

SDZ004>011-016>023-039-040-300400-
NORTHEAST SOUTH DAKOTA

CITY           SKY/WX    TMP DP  RH WIND       PRES   REMARKS
ABERDEEN       CLOUDY    50  40  68 N12       30.22R
WATERTOWN      CLOUDY    47  40  76 N15       30.17R
BROOKINGS      CLOUDY    46  41  81 N14       30.16S
SISSETON         N/A     49  41  74 N20       30.19R
$$

SDZ017-020-022-023-036>040-048>070-300400-
SOUTHEAST SOUTH DAKOTA

CITY           SKY/WX    TMP DP  RH WIND       PRES   REMARKS
SIOUX FALLS    CLOUDY    49  43  80 N17       30.15R
HURON          MOCLDY    49  42  77 N10       30.20R
CHAMBERLAIN    MOCLDY    47  44  87 N3        30.22S
MITCHELL       CLOUDY    51  44  77 N12       30.19R
YANKTON        MOCLDY    52  43  71 NW16G23   30.15R
$$

ABBREVIATIONS USED IN REMARKS
   TC - TEMPERATURE IN CELSIUS
  WCI - WIND CHILL INDEX
   HX - HEAT INDEX
  VSB - VISIBILITY



USA.gov is the U.S. government's official web portal to all federal, state and local government web resources and services.